This is the latest recevied weather packets stored in our database for station/object DM1HF-13. If no packets are shown the sender has not sent any weather packets the latest 10 day(s).
| Time | Temp. | Humidity | Pressure | Rain* | Wind** | Luminosity | Snow |
|---|---|---|---|---|---|---|---|
| 1778016317 | 15° C | 87% | 1008.1 hPa | 7.87 mm | - | 0 W/m² | - |
| 1778016017 | 15° C | 86% | 1008.3 hPa | 8.89 mm | - | 0 W/m² | - |
| 1778015717 | 15° C | 87% | 1008.4 hPa | 7.11 mm | - | 0 W/m² | - |
| 1778015417 | 15° C | 86% | 1008.4 hPa | 3.3 mm | - | 0 W/m² | - |
| 1778015117 | 15° C | 85% | 1008.4 hPa | 2.79 mm | - | 0 W/m² | - |
| 1778014817 | 15.56° C | 85% | 1008.3 hPa | 2.54 mm | - | 0 W/m² | - |
| 1778014517 | 15.56° C | 84% | 1008.4 hPa | 5.08 mm | - | 0 W/m² | - |
| 1778014217 | 15.56° C | 82% | 1008.3 hPa | 3.56 mm | - | 0 W/m² | - |
| 1778013917 | 15.56° C | 81% | 1008.3 hPa | 0 mm | - | 0 W/m² | - |
| 1778013617 | 15.56° C | 78% | 1008.2 hPa | 0.76 mm | - | 0 W/m² | - |
| 1778013317 | 16.11° C | 77% | 1008.3 hPa | 1.02 mm | - | 0 W/m² | - |
| 1778013017 | 16.11° C | 76% | 1008.3 hPa | 1.02 mm | - | 0 W/m² | - |
| 1778012717 | 16.11° C | 76% | 1008.3 hPa | 2.29 mm | - | 0 W/m² | - |
| 1778012417 | 16.11° C | 75% | 1008.2 hPa | 0 mm | - | 0 W/m² | - |
| 1778012117 | 16.11° C | 75% | 1008 hPa | 0 mm | - | 0 W/m² | - |
| 1778011817 | 16.11° C | 75% | 1007.8 hPa | 0 mm | - | 0 W/m² | - |
| 1778011517 | 16.67° C | 74% | 1007.7 hPa | 0 mm | - | 0 W/m² | - |
| 1778011217 | 16.67° C | 74% | 1007.6 hPa | 0 mm | - | 0 W/m² | - |
| 1778010917 | 16.67° C | 74% | 1007.6 hPa | 0 mm | - | 0 W/m² | - |
| 1778010617 | 16.67° C | 74% | 1007.6 hPa | 0 mm | - | 0 W/m² | - |
| 1778010317 | 16.67° C | 74% | 1007.3 hPa | 0 mm | - | 0 W/m² | - |
| 1778010017 | 16.67° C | 74% | 1007.2 hPa | 0 mm | - | 0 W/m² | - |
| 1778009717 | 16.67° C | 74% | 1007.3 hPa | 0 mm | - | 0 W/m² | - |
| 1778009417 | 16.67° C | 75% | 1007.4 hPa | 0 mm | - | 0 W/m² | - |
| 1778009117 | 16.67° C | 75% | 1007.5 hPa | 0 mm | - | 0 W/m² | - |
* Rain latest hour (hover to see other rain measurements)
** Current wind speed in m/s (hover to see current wind gust speed)